St. George, UT

7:16 AM MDT on April 27, 2017 (GMT -0600)
Saint George Municipal

Weather History for KSGU - November, 2012

Change the Weather History Date:

Tuesday, November 13, 2012

  Actual Average Record
Temperature  
Mean Temperature 44 °F -  
Max Temperature 59 °F 65 °F 81 °F (1934)
Min Temperature 30 °F 36 °F 19 °F (1938)
Degree Days  
Heating Degree Days 20    
Moisture  
Dew Point 10 °F    
Average Humidity 26    
Maximum Humidity 41    
Minimum Humidity 15    
Precipitation  
Precipitation 0.00 in - - ()
Sea Level Pressure  
Sea Level Pressure 30.32 in    
Wind  
Wind Speed 1 mph (SW)    
Max Wind Speed 6 mph    
Max Gust Speed -    
Visibility 10 miles    
Events      
Averages and records for this station are not official NWS values.
T = Trace of Precipitation, MM = Missing Value Source: NWS Daily Summary

Daily Weather History Graph

Daily Weather History Graph

Search for Another Location

Airport or City:

Trip Planner

Search our weather history database for the weather conditions in past years. The results will help you decide how hot, cold, wet, or windy it might be!

Date:

Astronomy

Nov. 13, 2012 Rise Set
Actual Time 7:11 AM MST 5:25 PM MST
Civil Twilight 6:43 AM MST 5:52 PM MST
Nautical Twilight 6:12 AM MST 6:24 PM MST
Astronomical Twilight 5:41 AM MST 6:54 PM MST
Moon 6:53 AM MST (11/13) 5:22 PM MST (11/13)
Length of Visible Light 11h 09m
Length of Day
10h 14m
Waning Crescent, 0% of the Moon is Illuminated
Nov 13
Waning Crescent
Nov 13
New
Nov 20
First Quarter
Nov 28
Full
Dec 6
Last Quarter

Hourly Weather History & Observations

Time (MST) Temp. Windchill Dew Point Humidity Pressure Visibility Wind Dir Wind Speed Gust Speed Precip Events Conditions
12:15 AM 39.2 °F - 12.2 °F 33% 30.36 in 10.0 mi Calm Calm - N/A   Clear
12:35 AM 35.6 °F 32.8 °F 8.6 °F 33% 30.37 in 10.0 mi SSW 3.5 mph - N/A   Clear
12:55 AM 37.4 °F 34.9 °F 10.4 °F 33% 30.37 in 10.0 mi WSW 3.5 mph - N/A   Clear
1:15 AM 35.6 °F - 10.4 °F 35% 30.37 in 10.0 mi Calm Calm - N/A   Clear
1:35 AM 33.8 °F - 8.6 °F 35% 30.37 in 10.0 mi Calm Calm - N/A   Clear
1:55 AM 35.6 °F 31.7 °F 8.6 °F 33% 30.38 in 10.0 mi WSW 4.6 mph - N/A   Clear
2:15 AM 33.8 °F - 8.6 °F 35% 30.38 in 10.0 mi Calm Calm - N/A   Clear
2:35 AM 35.6 °F - 8.6 °F 33% 30.37 in 10.0 mi Calm Calm - N/A   Clear
2:55 AM 35.6 °F - 6.8 °F 30% 30.37 in 10.0 mi Calm Calm - N/A   Clear
3:15 AM 35.6 °F - 8.6 °F 33% 30.37 in 10.0 mi Calm Calm - N/A   Clear
3:35 AM 35.6 °F 32.8 °F 10.4 °F 35% 30.37 in 10.0 mi NNW 3.5 mph - N/A   Clear
3:55 AM 33.8 °F - 8.6 °F 35% 30.37 in 10.0 mi Calm Calm - N/A   Clear
4:15 AM 33.8 °F - 6.8 °F 32% 30.37 in 10.0 mi Calm Calm - N/A   Clear
4:35 AM 35.6 °F - 6.8 °F 30% 30.37 in 10.0 mi Calm Calm - N/A   Clear
4:55 AM 33.8 °F - 6.8 °F 32% 30.37 in 10.0 mi Calm Calm - N/A   Clear
5:15 AM 33.8 °F 30.8 °F 6.8 °F 32% 30.36 in 10.0 mi South 3.5 mph - N/A   Clear
5:35 AM 33.8 °F 30.8 °F 6.8 °F 32% 30.37 in 10.0 mi NW 3.5 mph - N/A   Clear
5:55 AM 32.0 °F - 8.6 °F 38% 30.37 in 10.0 mi Calm Calm - N/A   Clear
6:15 AM 32.0 °F 28.7 °F 10.4 °F 41% 30.37 in 10.0 mi NW 3.5 mph - N/A   Clear
6:35 AM 32.0 °F - 10.4 °F 41% 30.37 in 10.0 mi Calm Calm - N/A   Clear
6:55 AM 33.8 °F - 10.4 °F 38% 30.38 in 10.0 mi Calm Calm - N/A   Clear
7:15 AM 30.2 °F 26.7 °F 6.8 °F 37% 30.38 in 10.0 mi SSW 3.5 mph - N/A   Clear
7:35 AM 30.2 °F - 6.8 °F 37% 30.38 in 10.0 mi Calm Calm - N/A   Clear
7:55 AM 33.8 °F - 8.6 °F 35% 30.38 in 10.0 mi Calm Calm - N/A   Clear
8:15 AM 35.6 °F - 8.6 °F 33% 30.38 in 10.0 mi Calm Calm - N/A   Clear
8:35 AM 35.6 °F - 6.8 °F 30% 30.39 in 10.0 mi Calm Calm - N/A   Clear
8:55 AM 35.6 °F - 8.6 °F 33% 30.39 in 10.0 mi Calm Calm - N/A   Clear
9:15 AM 37.4 °F - 8.6 °F 30% 30.40 in 10.0 mi Calm Calm - N/A   Clear
9:35 AM 39.2 °F - 10.4 °F 31% 30.39 in 10.0 mi Calm Calm - N/A   Clear
9:55 AM 39.2 °F - 10.4 °F 31% 30.39 in 10.0 mi Calm Calm - N/A   Clear
10:15 AM 42.8 °F - 10.4 °F 27% 30.38 in 10.0 mi Calm Calm - N/A   Clear
10:35 AM 42.8 °F - 8.6 °F 25% 30.38 in 10.0 mi Calm Calm - N/A   Clear
10:55 AM 44.6 °F 43.1 °F 10.4 °F 25% 30.38 in 10.0 mi SW 3.5 mph - N/A   Clear
11:15 AM 46.4 °F - 10.4 °F 23% 30.37 in 10.0 mi Calm Calm - N/A   Clear
11:55 AM 48.2 °F - 10.4 °F 22% 30.34 in 10.0 mi Calm Calm - N/A   Clear
12:15 PM 48.2 °F - 10.4 °F 22% 30.34 in 10.0 mi Calm Calm - N/A   Clear
12:35 PM 51.8 °F - 12.2 °F 21% 30.33 in 10.0 mi Calm Calm - N/A   Clear
12:55 PM 51.8 °F - 10.4 °F 19% 30.31 in 10.0 mi Calm Calm - N/A   Clear
1:15 PM 53.6 °F - 12.2 °F 19% 30.30 in 10.0 mi Calm Calm - N/A   Clear
1:35 PM 53.6 °F - 12.2 °F 19% 30.29 in 10.0 mi Calm Calm - N/A   Clear
1:55 PM 55.4 °F - 12.2 °F 18% 30.29 in 10.0 mi SW 4.6 mph - N/A   Clear
2:15 PM 55.4 °F - 12.2 °F 18% 30.28 in 10.0 mi Calm Calm - N/A   Clear
2:35 PM 57.2 °F - 12.2 °F 17% 30.27 in 10.0 mi Calm Calm - N/A   Clear
2:55 PM 57.2 °F - 12.2 °F 17% 30.26 in 10.0 mi Calm Calm - N/A   Clear
3:15 PM 57.2 °F - 12.2 °F 17% 30.25 in 10.0 mi Calm Calm - N/A   Clear
3:35 PM 59.0 °F - 10.4 °F 15% 30.24 in 10.0 mi Calm Calm - N/A   Clear
3:55 PM 59.0 °F - 10.4 °F 15% 30.24 in 10.0 mi Calm Calm - N/A   Clear
4:15 PM 59.0 °F - 10.4 °F 15% 30.24 in 10.0 mi Calm Calm - N/A   Clear
4:35 PM 59.0 °F - 10.4 °F 15% 30.24 in 10.0 mi West 3.5 mph - N/A   Clear
4:55 PM 59.0 °F - 10.4 °F 15% 30.24 in 10.0 mi Calm Calm - N/A   Clear
5:15 PM 57.2 °F - 10.4 °F 16% 30.23 in 10.0 mi Calm Calm - N/A   Clear
5:35 PM 55.4 °F - 10.4 °F 17% 30.23 in 10.0 mi SW 4.6 mph - N/A   Clear
5:55 PM 55.4 °F - 8.6 °F 15% 30.23 in 10.0 mi SSW 3.5 mph - N/A   Clear
6:15 PM 53.6 °F - 8.6 °F 16% 30.23 in 10.0 mi Calm Calm - N/A   Clear
6:35 PM 51.8 °F - 8.6 °F 18% 30.24 in 10.0 mi SSW 4.6 mph - N/A   Clear
6:55 PM 51.8 °F - 8.6 °F 18% 30.24 in 10.0 mi South 4.6 mph - N/A   Clear
7:15 PM 50.0 °F - 8.6 °F 19% 30.24 in 10.0 mi SSE 5.8 mph - N/A   Clear
7:35 PM 48.2 °F - 8.6 °F 20% 30.25 in 10.0 mi South 3.5 mph - N/A   Clear
7:55 PM 48.2 °F - 8.6 °F 20% 30.26 in 10.0 mi Calm Calm - N/A   Clear
8:15 PM 48.2 °F - 8.6 °F 20% 30.27 in 10.0 mi Calm Calm - N/A   Clear
8:35 PM 48.2 °F - 8.6 °F 20% 30.27 in 10.0 mi Calm Calm - N/A   Clear
8:55 PM 48.2 °F - 8.6 °F 20% 30.28 in 10.0 mi Calm Calm - N/A   Clear
9:15 PM 46.4 °F - 8.6 °F 22% 30.29 in 10.0 mi Calm Calm - N/A   Clear
9:35 PM 46.4 °F 45.2 °F 8.6 °F 22% 30.29 in 10.0 mi West 3.5 mph - N/A   Clear
9:55 PM 44.6 °F - 8.6 °F 23% 30.29 in 10.0 mi Calm Calm - N/A   Clear
10:15 PM 44.6 °F - 10.4 °F 25% 30.29 in 10.0 mi Calm Calm - N/A   Clear
10:35 PM 42.8 °F 40.1 °F 10.4 °F 27% 30.29 in 10.0 mi NNW 4.6 mph - N/A   Clear
10:55 PM 44.6 °F - 14.0 °F 29% 30.29 in 10.0 mi Calm Calm - N/A   Clear
11:15 PM 44.6 °F - 10.4 °F 25% 30.29 in 10.0 mi Calm Calm - N/A   Clear
11:35 PM 42.8 °F 41.1 °F 12.2 °F 29% 30.29 in 10.0 mi SSE 3.5 mph - N/A   Clear
11:55 PM 42.8 °F - 10.4 °F 27% 30.29 in 10.0 mi Calm Calm - N/A   Clear